Weather in Hunstanton

United Kingdom     52°56′58″N   0°30′23″E
temp.,
°C
wind,
m/s
gust,
m/s
humid.,
%
clouds,
%
prec.,
mm/h
press.,
hPa
HPBL,
m
10 may, mon
mon1001:00+12s4694100 0.3 99558
04:00+10sw61094100 2.3 995307
07:00+10ssw81389100 2.6 996398
10:00+11ssw9128399 0.1 998449
13:00+12ssw10147664 0.3 999394
16:00+13ssw1115730 0.6 1001372
19:00+12ssw914730 0.6 1002304
22:00+10s712804 0.0 1005276
11 may, tue
tue1101:00+9ssw7138212 0.0 1006379
04:00+8ssw578651 0.0 1007227
07:00+8s56825 0.0 1008177
10:00+11sse227566 0.0 1008105
13:00+13se457774 0.7 1007196
16:00+14sse6871100 1.4 1007204
19:00+12s81179100 2.8 1007234
22:00+11sse71382100 0.0 1008302
12 may, wed
wed1201:00+10s81187100 0.0 1008492
04:00+9ssw71191100 0.0 1009495
07:00+9s6985100 0.0 1009373
10:00+11sw578115 0.0 1010230
13:00+12sw33778 0.3 1010140
16:00+12ssw337837 0.4 101098
19:00+12ssw348229 1.0 101051
22:00+11ssw458354 0.3 101166
13 may, thu
thu1301:00+9ssw56883 0.3 1011130
04:00+8sw45881 0.0 1011149
07:00+8sw338714 0.0 1011152
10:00+9wsw22854 0.0 1011168
13:00+10ene2280100 0.0 1011161
16:00+11ene4476100 0.0 1011168
19:00+11e5681100 0.0 1011120
22:00+10e4481100 0.0 101180
14 may, fri
fri1401:00+10e3384100 0.0 101165
04:00+10nne4487100 0.0 1011141
07:00+9nne6684100 0.0 1011366
10:00+9n7785100 0.0 1012581
13:00+9n6779100 0.0 1013759
16:00+9n6678100 0.0 1013839
19:00+9n678095 0.0 1013727
22:00+9n568424 0.0 1014405